User: anonymous
Location: Unspecified
(0.0000°N, 0.0000°E)
Time: 21:15:21
(UTC+00:00)
Language:

AMOS 1 - Orbit

View from above orbital plane
View from above orbital plane
View from above satellite
View from above satellite

Ground track
Ground track

The orbit data is extracted from the following two-line orbital elements,

1 23865U 96030B   14243.08509779 -.00000065  00000-0  00000+0 0  1501
2 23865 005.2052 061.6524 0013851 086.6660 270.4509 00.97116793 66736
Epoch (UTC): 31 August 2014 02:02:32
Eccentricity: 0.0013851
inclination: 5.2052°
perigee height: 36635 km
apogee height: 36754 km
right ascension of ascending node: 61.6524°
argument of perigee: 86.6660°
revolutions per day: 0.97116793
mean anomaly at epoch: 270.4509°
orbit number at epoch: 6673

The dashed part of the orbit path shows where the satellite is in the earth's shadow,  

DLR